Weather History for Edwards AFB North Base, CA

Change the Weather History Date:

Tuesday, January 22, 2013

  Actual Average (KEDW) Record (KEDW)
Temperature  
Mean Temperature 40 °F -  
Max Temperature 64 °F 58 °F 69 °F (1999)
Min Temperature 17 °F 32 °F 18 °F (2013)
Degree Days  
Heating Degree Days 24    
Moisture  
Dew Point -3 °F    
Average Humidity 18    
Maximum Humidity 28    
Minimum Humidity 9    
Precipitation  
Precipitation 0.00 in - - ()
Sea Level Pressure  
Sea Level Pressure 30.22 in    
Wind  
Wind Speed 2 mph (South)    
Max Wind Speed 6 mph    
Max Gust Speed -    
Visibility 10 miles    
Events      
Averages and records for this station are not official NWS values.
T = Trace of Precipitation, MM = Missing Value Source: NWS Daily Summary

Daily Weather History Graph

Daily Weather History Graph

Search for Another Location

Airport:

Trip Planner

Search our weather history database for the weather conditions in past years. The results will help you decide how hot, cold, wet, or windy it might be!

Date:

Astronomy

Jan. 22, 2013 Rise Set
Actual Time 6:56 AM PST 5:10 PM PST
Civil Twilight 6:29 AM PST 5:37 PM PST
Nautical Twilight 5:58 AM PST 6:08 PM PST
Astronomical Twilight 5:28 AM PST 6:38 PM PST
Moon 1:38 PM PST (1/22) 3:20 AM PST (1/22)
Length of Visible Light 11h 08m
Length of Day
10h 14m
Waxing Gibbous, 83% of the Moon is Illuminated
Jan 22
Waxing Gibbous
Jan 26
Full
Feb 3
Last Quarter
Feb 9
New
Feb 17
First Quarter

Hourly Weather History & Observations

Time (PST) Temp. Windchill Dew Point Humidity Pressure Visibility Wind Dir Wind Speed Gust Speed Precip Events Conditions
12:55 AM 25.0 °F 20.7 °F -8.0 °F 23% 30.22 in 10.0 mi North 3.5 mph - N/A   Clear
1:55 AM 21.9 °F 17.2 °F -9.0 °F 25% 30.23 in 10.0 mi West 3.5 mph - N/A   Clear
2:55 AM 23.0 °F 18.4 °F -9.0 °F 24% 30.22 in 10.0 mi South 3.5 mph - N/A   Clear
3:55 AM 21.0 °F - -11.9 °F 23% 30.22 in 10.0 mi Calm Calm - N/A   Clear
4:55 AM 21.0 °F - -9.0 °F 26% 30.22 in 10.0 mi Calm Calm - N/A   Clear
5:55 AM 19.0 °F 11.1 °F -9.9 °F 27% 30.26 in 10.0 mi WNW 5.8 mph - N/A   Clear
6:55 AM 17.1 °F - -11.0 °F 28% 30.30 in 10.0 mi Calm Calm - N/A   Clear
7:55 AM 25.0 °F - -8.0 °F 23% 30.29 in 10.0 mi Calm Calm - N/A   Clear
8:55 AM 37.0 °F - -2.0 °F 19% 30.27 in 10.0 mi Calm Calm - N/A   Clear
9:55 AM 37.0 °F 32.4 °F -2.0 °F 19% 30.30 in 10.0 mi SSE 5.8 mph - N/A   Clear
10:55 AM 46.9 °F - 1.9 °F 16% 30.27 in 10.0 mi SSE 3.5 mph - N/A   Clear
11:55 AM 53.1 °F - 1.9 °F 12% 30.24 in 10.0 mi Calm Calm - N/A   Clear
12:55 PM 60.1 °F - 3.0 °F 10% 30.18 in 10.0 mi East 3.5 mph - N/A   Clear
1:55 PM 63.0 °F - 3.9 °F 10% 30.17 in 10.0 mi SSE 3.5 mph - N/A   Clear
2:55 PM 63.0 °F - 3.9 °F 10% 30.16 in 10.0 mi SSW 3.5 mph - N/A   Clear
3:55 PM 64.9 °F - 3.9 °F 9% 30.15 in 10.0 mi Calm Calm - N/A   Clear
4:55 PM 57.9 °F - 3.0 °F 11% 30.16 in 10.0 mi Calm Calm - N/A   Clear
5:55 PM 48.0 °F - -0.0 °F 14% 30.18 in 10.0 mi Calm Calm - N/A   Clear
6:55 PM 44.6 °F 42.2 °F -0.4 °F 15% 30.13 in 10.0 mi WNW 4.6 mph - N/A   Clear
7:55 PM 41.0 °F 38.0 °F -0.9 °F 17% 30.21 in 10.0 mi North 4.6 mph - N/A   Clear
8:55 PM 37.9 °F 35.5 °F -2.0 °F 18% 30.19 in 10.0 mi NNE 3.5 mph - N/A   Clear
9:55 PM 37.0 °F 34.5 °F -0.9 °F 20% 30.21 in 10.0 mi South 3.5 mph - N/A   Clear
10:55 PM 35.1 °F - -2.0 °F 21% 30.21 in 10.0 mi Calm Calm - N/A   Clear
11:55 PM 34.0 °F - -2.0 °F 22% 30.19 in 10.0 mi Calm Calm - N/A   Clear